Tracking 25734 objects as of 28-May-2022
HD Live streaming from Space Station
objects crossing your sky now

DELTA 1 DEB

Track DELTA 1 DEB now!
10-day predictions


NORAD ID: 25270
Int'l Code: 1968-055E
Perigee: 740.0 km
Apogee: 4,703.6 km
Inclination: 120.6 °
Period: 143.8 minutes
Semi major axis: 9092 km
RCS: 0.0071 m2 (small)
Launch date: July 4, 1968
Source: United States (US)
Launch site: AIR FORCE WESTERN TEST RANGE (AFWTR)

Note: This is SATELLITE DEBRIS
aabbcc
Your satellite tracking list
Your tracking list is empty




NASA's NSSDC Master Catalog

Two Line Element Set (TLE):
1 25270U 68055E   22146.26088056 -.00001046  00000-0 -23730-2 0  9990
2 25270 120.6324 144.6365 2179533 341.9945  11.4193 10.01280080982233
Source of the keplerian elements: AFSPC